This is the latest recevied weather packets stored in our database for station/object WX4HP-13. If no packets are shown the sender has not sent any weather packets the latest 10 day(s).
| Time | Temp. | Humidity | Pressure | Rain* | Wind** | Luminosity | Snow |
|---|---|---|---|---|---|---|---|
| 1778013597 | 21.11° C | 58% | 1010.8 hPa | 0 mm | - | - | - |
| 1778013297 | 21.11° C | 62% | 1011 hPa | 0 mm | - | - | - |
| 1778012995 | 21.11° C | 62% | 1011 hPa | 0 mm | - | - | - |
| 1778012697 | 21.11° C | 58% | 1011.3 hPa | 0 mm | - | - | - |
| 1778012398 | 21.67° C | 57% | 1011.2 hPa | 0 mm | - | - | - |
| 1778012097 | 21.67° C | 55% | 1011.5 hPa | 0 mm | - | - | - |
| 1778011797 | 22.22° C | 54% | 1011.5 hPa | 0 mm | - | - | - |
| 1778011497 | 21.67° C | 55% | 1011.2 hPa | 0 mm | - | - | - |
| 1778011197 | 21.67° C | 54% | 1011.1 hPa | 0 mm | - | - | - |
| 1778010897 | 22.22° C | 51% | 1011.5 hPa | 0 mm | - | - | - |
| 1778010597 | 22.78° C | 52% | 1011.9 hPa | 0 mm | - | - | - |
| 1778010297 | 22.78° C | 48% | 1011.9 hPa | 0 mm | - | - | - |
| 1778009695 | 23.89° C | 46% | 1012 hPa | 0 mm | - | - | - |
| 1778009397 | 24.44° C | 46% | 1012.1 hPa | 0 mm | - | - | - |
| 1778009097 | 23.89° C | 47% | 1012 hPa | 0 mm | - | - | - |
| 1778008797 | 25° C | 45% | 1012.1 hPa | 0 mm | - | - | - |
| 1778008497 | 25° C | 46% | 1012.2 hPa | 0 mm | - | - | - |
| 1778008197 | 24.44° C | 46% | 1012.5 hPa | 0 mm | - | - | - |
| 1778007895 | 24.44° C | 46% | 1012.3 hPa | 0 mm | - | - | - |
| 1778007597 | 24.44° C | 45% | 1012.4 hPa | 0 mm | - | - | - |
| 1778007297 | 24.44° C | 46% | 1012.4 hPa | 0 mm | - | - | - |
| 1778006997 | 24.44° C | 45% | 1012.5 hPa | 0 mm | - | - | - |
| 1778006697 | 24.44° C | 44% | 1012.7 hPa | 0 mm | - | - | - |
| 1778006397 | 24.44° C | 45% | 1012.7 hPa | 0 mm | - | - | - |
| 1778006097 | 24.44° C | 44% | 1012.6 hPa | 0 mm | - | - | - |
* Rain latest hour (hover to see other rain measurements)
** Current wind speed in m/s (hover to see current wind gust speed)